DW8595 Weather Reports


Display with metric or nautical units.
time (UTC)temp
F
wind
direction
speed
MPH
gust
MPH
rain 1hr
in
rain 24hr
in
rain mn
in
humidity
%
barometer
mb
20190923130326 71 255 1.0 4.0 0.00 0.00 0.00 90 1011.0
20190923125310 70 210 1.0 3.0 0.00 0.00 0.00 91 1011.1
20190923124314 69 227 1.0 4.0 0.00 0.00 0.00 92 1011.1
20190923123317 68 214 0.0 1.0 0.00 0.00 0.00 95 1011.1
20190923122319 67 226 0.0 1.0 0.00 0.00 0.00 98 1011.2
20190923121307 66 219 0.0 3.0 0.00 0.00 0.00 98 1011.2
20190923120308 65 96 0.0 0.0 0.00 0.00 0.00 97 1011.3
20190923115311 65 96 0.0 0.0 0.00 0.00 0.00 97 1011.3
20190923114317 65 96 0.0 0.0 0.00 0.00 0.00 97 1011.2
20190923113320 65 96 0.0 0.0 0.00 0.00 0.00 97 1011.2
20190923112322 65 96 0.0 0.0 0.00 0.00 0.00 97 1011.2
20190923111310 65 96 0.0 0.0 0.00 0.00 0.00 97 1011.3
20190923110311 65 96 0.0 0.0 0.00 0.00 0.00 97 1011.3
20190923105315 65 96 0.0 0.0 0.00 0.00 0.00 97 1011.3
20190923104317 65 96 0.0 0.0 0.00 0.00 0.00 96 1011.4
20190923103323 65 96 0.0 0.0 0.00 0.00 0.00 96 1011.5
20190923102325 65 96 0.0 0.0 0.00 0.00 0.00 96 1011.5
20190923101308 65 96 0.0 0.0 0.00 0.00 0.00 97 1011.5
20190923100315 65 96 0.0 0.0 0.00 0.00 0.00 96 1011.6
20190923095318 65 96 0.0 0.0 0.00 0.00 0.00 96 1011.4
20190923094320 65 96 0.0 0.0 0.00 0.00 0.00 96 1011.4
20190923093307 64 96 0.0 0.0 0.00 0.00 0.00 96 1011.4
20190923092309 64 96 0.0 0.0 0.00 0.00 0.00 96 1011.5
20190923091311 64 77 0.0 0.0 0.00 0.00 0.00 97 1011.6
20190923090317 63 77 0.0 0.0 0.00 0.00 0.00 96 1011.6
20190923085321 63 77 0.0 0.0 0.00 0.00 0.00 96 1011.7
20190923084322 63 77 0.0 0.0 0.00 0.00 0.00 96 1011.7
20190923083311 63 77 0.0 0.0 0.00 0.00 0.00 95 1011.9
20190923082311 64 77 0.0 0.0 0.00 0.00 0.00 95 1011.9
20190923081314 64 78 0.0 0.0 0.00 0.00 0.00 94 1012.0
20190923080320 64 77 0.0 0.0 0.00 0.00 0.00 94 1012.0
20190923075323 64 77 0.0 0.0 0.00 0.00 0.00 93 1012.1
20190923074325 65 77 0.0 0.0 0.00 0.00 0.00 93 1012.1
20190923073312 65 78 0.0 0.0 0.00 0.00 0.00 92 1012.2
20190923072314 65 77 0.0 0.0 0.00 0.00 0.00 92 1012.3
20190923071317 65 219 0.0 0.0 0.00 0.00 0.00 92 1012.4
20190923070323 66 219 0.0 0.0 0.00 0.00 0.00 91 1012.5
20190923065306 66 219 0.0 0.0 0.00 0.00 0.00 90 1012.7
20190923064309 67 219 0.0 0.0 0.00 0.00 0.00 89 1012.7
20190923063315 67 219 0.0 0.0 0.00 0.00 0.00 88 1012.8
20190923062317 67 219 0.0 0.0 0.00 0.00 0.00 87 1012.9
20190923061320 68 219 0.0 0.0 0.00 0.00 0.00 87 1013.0
20190923060306 68 219 0.0 0.0 0.00 0.00 0.00 86 1013.1
20190923055309 68 212 0.0 0.0 0.00 0.00 0.00 86 1013.2
20190923054311 68 222 0.0 0.0 0.00 0.00 0.00 86 1013.2
20190923053313 68 209 0.0 0.0 0.00 0.00 0.00 86 1013.4
20190923052319 68 85 0.0 0.0 0.00 0.00 0.00 86 1013.5
20190923051322 68 32 0.0 1.0 0.00 0.00 0.00 86 1013.7
20190923050324 68 209 0.0 0.0 0.00 0.00 0.00 87 1013.8
20190923045312 68 67 0.0 0.0 0.00 0.00 0.00 86 1013.9
20190923044313 68 65 0.0 0.0 0.00 0.00 0.00 85 1013.9
20190923043316 68 263 0.0 0.0 0.00 0.00 0.00 85 1013.9
20190923042322 69 231 0.0 0.0 0.00 0.00 0.00 85 1014.0
20190923041325 69 256 0.0 0.0 0.00 0.00 0.00 85 1014.1
20190923040307 69 231 0.0 0.0 0.00 0.00 0.00 84 1014.3
20190923035314 69 47 0.0 0.0 0.00 0.00 0.00 83 1014.4
20190923034317 70 227 0.0 0.0 0.00 0.00 0.00 83 1014.5
20190923033319 70 228 0.0 0.0 0.00 0.00 0.00 82 1014.6
20190923032325 71 236 0.0 0.0 0.00 0.00 0.00 81 1014.7
20190923031308 70 147 0.0 5.0 0.00 0.00 0.00 82 1014.7
20190923030310 71 226 0.0 1.0 0.00 0.00 0.00 81 1014.9
20190923025317 71 89 0.0 1.0 0.00 0.00 0.00 81 1015.0
20190923024319 71 209 0.0 3.0 0.00 0.00 0.00 80 1015.1
20190923023322 71 13 0.0 3.0 0.00 0.00 0.00 81 1015.0
20190923022309 71 200 1.0 3.0 0.00 0.00 0.00 81 1015.1
20190923021311 71 236 0.0 0.0 0.00 0.00 0.00 81 1015.1
20190923020314 71 359 0.0 0.0 0.00 0.00 0.00 80 1015.2
20190923015320 71 23 0.0 3.0 0.00 0.00 0.00 80 1015.4
20190923014322 71 17 0.0 0.0 0.00 0.00 0.00 79 1015.5
20190923013325 72 262 0.0 0.0 0.00 0.00 0.00 78 1015.5
20190923012311 72 209 0.0 1.0 0.00 0.00 0.00 77 1015.6
20190923011314 72 55 0.0 1.0 0.00 0.00 0.00 75 1015.7
20190923010316 72 20 0.0 1.0 0.00 0.00 0.00 75 1015.7
20190923005319 72 1 0.0 3.0 0.00 0.00 0.00 75 1015.7
20190923004325 72 233 0.0 2.0 0.00 0.00 0.00 75 1015.8
20190923003308 71 243 0.0 0.0 0.00 0.00 0.00 77 1015.8
20190923002310 70 219 0.0 0.0 0.00 0.00 0.00 79 1015.8
20190923001317 70 220 0.0 0.0 0.00 0.00 0.00 82 1015.8
20190923000319 69 214 0.0 0.0 0.00 0.00 0.00 83 1015.8
20190922235319 69 214 0.0 0.0 0.00 0.00 0.00 82 1015.8
20190922234325 70 214 0.0 0.0 0.00 0.00 0.00 81 1015.9
20190922233309 71 214 0.0 0.0 0.00 0.00 0.00 79 1015.7
20190922232311 71 214 0.0 0.0 0.00 0.00 0.00 78 1015.8
20190922231317 72 214 0.0 0.0 0.00 0.00 0.00 76 1015.8
20190922230319 73 214 0.0 0.0 0.00 0.00 0.00 75 1015.8
20190922225322 74 214 0.0 0.0 0.00 0.00 0.00 72 1015.9
20190922224309 75 214 0.0 0.0 0.00 0.00 0.00 69 1015.9
20190922223311 76 214 0.0 0.0 0.00 0.00 0.00 66 1016.0
20190922222313 77 214 0.0 0.0 0.00 0.00 0.00 65 1015.9
20190922221320 78 214 0.0 0.0 0.00 0.00 0.00 64 1015.9
20190922220322 78 233 0.0 1.0 0.00 0.00 0.00 62 1015.9
20190922215325 79 189 0.0 1.0 0.00 0.00 0.00 61 1015.9
20190922214311 80 200 0.0 2.0 0.00 0.00 0.00 59 1016.0
20190922213314 81 224 0.0 3.0 0.00 0.00 0.00 56 1016.0
20190922212316 81 248 0.0 2.0 0.00 0.00 0.00 57 1016.0
20190922211323 81 233 0.0 3.0 0.00 0.00 0.00 55 1016.1
20190922210325 82 217 0.0 3.0 0.00 0.00 0.00 56 1016.1
20190922205308 82 228 0.0 2.0 0.00 0.00 0.00 53 1016.1
20190922204314 82 219 0.0 2.0 0.00 0.00 0.00 54 1016.2
20190922203317 83 237 0.0 3.0 0.00 0.00 0.00 51 1016.3
20190922202319 84 229 1.0 2.0 0.00 0.00 0.00 49 1016.3
20190922201306 84 231 0.0 2.0 0.00 0.00 0.00 49 1016.4
20190922200308 84 217 0.0 2.0 0.00 0.00 0.00 48 1016.5
20190922195311 85 242 0.0 1.0 0.00 0.00 0.00 48 1016.7
20190922194312 85 214 0.0 5.0 0.00 0.00 0.00 45 1016.9
20190922193319 85 226 0.0 3.0 0.00 0.00 0.00 44 1016.8
20190922192321 86 218 1.0 4.0 0.00 0.00 0.00 43 1017.1
20190922191324 86 208 0.0 6.0 0.00 0.00 0.00 43 1017.3
20190922190310 86 202 0.0 2.0 0.00 0.00 0.00 42 1017.5
20190922185313 86 187 0.0 4.0 0.00 0.00 0.00 40 1017.7
20190922184313 86 236 1.0 3.0 0.00 0.00 0.00 40 1017.6
20190922183320 86 219 0.0 2.0 0.00 0.00 0.00 43 1017.7
20190922182322 87 320 0.0 4.0 0.00 0.00 0.00 42 1017.8
20190922181325 86 249 1.0 3.0 0.00 0.00 0.00 44 1017.9
20190922180311 85 213 1.0 5.0 0.00 0.00 0.00 44 1018.0
20190922175314 85 198 1.0 4.0 0.00 0.00 0.00 45 1018.2
20190922174316 85 207 2.0 5.0 0.00 0.00 0.00 43 1018.3
20190922173323 85 37 1.0 6.0 0.00 0.00 0.00 48 1018.4
20190922172325 84 162 2.0 6.0 0.00 0.00 0.00 48 1018.4
20190922171308 85 63 1.0 6.0 0.00 0.00 0.00 48 1018.5
20190922170314 85 210 1.0 3.0 0.00 0.00 0.00 47 1018.7
20190922165317 85 153 1.0 5.0 0.00 0.00 0.00 50 1019.1
20190922164319 84 242 2.0 4.0 0.00 0.00 0.00 51 1019.2
20190922163306 83 221 1.0 3.0 0.00 0.00 0.00 52 1019.4
20190922162308 83 139 1.0 4.0 0.00 0.00 0.00 55 1019.5
20190922161311 82 181 1.0 2.0 0.00 0.00 0.00 56 1019.6
20190922160317 81 226 1.0 4.0 0.00 0.00 0.00 59 1019.7
20190922155319 81 225 0.0 3.0 0.00 0.00 0.00 59 1019.9
20190922154321 80 40 1.0 2.0 0.00 0.00 0.00 57 1020.0
20190922153308 79 236 0.0 4.0 0.00 0.00 0.00 61 1020.1
20190922152310 78 242 0.0 3.0 0.00 0.00 0.00 62 1020.2
20190922151313 77 307 0.0 3.0 0.00 0.00 0.00 66 1020.2
20190922150315 76 314 1.0 3.0 0.00 0.00 0.00 66 1020.5
20190922145322 75 121 0.0 2.0 0.00 0.00 0.00 69 1020.6
20190922144324 75 271 0.0 1.0 0.00 0.00 0.00 75 1020.6
20190922143307 74 226 0.0 0.0 0.00 0.00 0.00 77 1020.7
20190922142313 73 229 0.0 2.0 0.00 0.00 0.00 77 1020.8
20190922141316 71 219 0.0 1.0 0.00 0.00 0.00 86 1020.8
20190922140318 69 329 0.0 0.0 0.00 0.00 0.00 91 1021.0
20190922135324 67 329 0.0 0.0 0.00 0.00 0.00 100 1021.1
20190922134307 65 333 0.0 1.0 0.00 0.00 0.00 100 1021.3
20190922133309 64 172 0.0 0.0 0.00 0.00 0.00 100 1021.2
20190922132316 62 309 0.0 0.0 0.00 0.00 0.00 100 1021.1
20190922131318 61 309 0.0 0.0 0.00 0.00 0.00 100 1020.9